Regional Weather Roundup
Issued by NWS Jackson, KY

Home | Current Version | Previous Version | Text Only | Print | Product List | Glossary Off
Versions: 1 2 3 4 5 6 7 8 9 10 11 12 13 14 15 16 17 18 19 20 21 22 23 24 25 26 27 28 29 30 31 32 33 34 35 36 37 38 39 40 41 42 43 44 45 46 47 48 49 50

000
ASUS43 KJKL 221610
RWRJKL

EAST KENTUCKY HOURLY WEATHER ROUNDUP
NATIONAL WEATHER SERVICE JACKSON KY
1200 PM EDT SUN OCT 22 2017

NOTE: "FAIR" INDICATES FEW OR NO CLOUDS BELOW 12,000 FEET WITH
NO SIGNIFICANT WEATHER AND/OR OBSTRUCTIONS TO VISIBILITY.

* THESE REPORTS ARE NOT UNDER NWS QUALITY CONTROL AND MAY NOT
  REPORT WEATHER SUCH AS PRECIPITATION AND FOG.

KYZ079-080-083-085-087-088-110-112-115-119-120-221700
...EASTERN KENTUCKY...

CITY           SKY/WX    TMP DP  RH WIND       PRES   REMARKS
JACKSON        SUNNY     70  50  49 CALM      30.27S
LONDON         CLOUDY    69  48  47 SE7       30.25F
SOMERSET*      CLOUDY    68  50  52 CALM      30.24F
MONTICELLO*    MOSUNNY   72  55  55 VRB7      30.24F
WILLIAMSBURG*  CLOUDY    68  52  56 SE8       30.25S
MIDDLESBORO*   SUNNY     70  52  51 S3        30.27F
HARLAN APT*    SUNNY     70  46  43 CALM      30.28S
PIKE CO APT*     N/A     69  51  52 CALM      30.28S
BIG SANDY APT* SUNNY     72  50  46 S8        30.28S
MOREHEAD APT*  SUNNY     72  48  43 SE9G16    30.27S
$$

KYZ035-036-041-042-044-050-067-078-099-221700
...CENTRAL KENTUCKY...

CITY           SKY/WX    TMP DP  RH WIND       PRES   REMARKS
MT STERLING*   SUNNY     72  50  46 S12       30.26S
FLEMING/MASON* SUNNY     72  50  46 S12G18    30.26S
DANVILLE*      SUNNY     72  52  49 S7        30.23F
LEXINGTON      CLOUDY    72  52  49 SE15G24   30.22F
FRANKFORT      MOSUNNY   72  52  49 S13G23    30.19F
LOUISVILLE     PTSUNNY   75  57  53 S17G28    30.15F
LEBANON*         N/A     72  54  53 S14G22    30.20S
GLASGOW*       MOSUNNY   73  56  54 S14G20    30.16F
BOWLING GREEN  SUNNY     74  59  59 S15G22    30.14F
$$

KYZ091>093-OHZ055-061-077-WVZ005-015-034-035-042-221700
...SOUTHERN OHIO/WEST VIRGINIA...

CITY           SKY/WX    TMP DP  RH WIND       PRES   REMARKS
COVINGTON      CLOUDY    70  55  59 S13       30.20S
COLUMBUS       PTSUNNY   73  53  49 S10       30.23F
DAYTON         PTSUNNY   71  53  52 S22       30.20F
WILMINGTON     SUNNY     72  54  53 S12       30.22S
HUNTINGTON     SUNNY     72  51  47 E5        30.26F
CHARLESTON     MOSUNNY   73  53  49 W3        30.28F
PINEVILLE*     SUNNY     73  49  43 MISG      30.34F
BECKLEY        SUNNY     66  48  52 SE9       30.34F
BLUEFIELD      SUNNY     65  45  48 VRB6G21   30.35F
LOGAN CO APT*    N/A     72  50  46 VRB3      30.29S
$$

VAZ002-007-008-TNZ017-027-036-066-071-221700
...SOUTHWEST VIRGINIA/EAST TENNESSEE...

CITY           SKY/WX    TMP DP  RH WIND       PRES   REMARKS
WISE*          SUNNY     68  46  45 S9        30.33S
JONESVILLE*      N/A     72  50  46 SE5       30.30F
ABINGDON*      SUNNY     72  49  43 SE6       30.32S
BRISTOL        MOSUNNY   70  54  56 SE3       30.29F
MORRISTOWN*    SUNNY     72  50  46 S7        30.27F
SEVIERVILLE*   SUNNY     68  54  60 CALM      30.25F
KNOXVILLE      CLOUDY    68  57  68 NE6       30.25F
LAFOLLETTE*    SUNNY     68  54  60 E5        30.30S
CROSSVILLE     SUNNY     69  54  58 S12G23    30.24F
NASHVILLE      PTSUNNY   76  59  55 S21G28    30.13F
$$

...KEY TO REMARKS...
VSB - VISIBILITY IN MILES
WCI - WIND CHILL INDEX
HX  - HEAT INDEX

$$



USA.gov is the U.S. government's official web portal to all federal, state and local government web resources and services.